Time,TemperatureF,DewpointF,PressureIn,WindDirection,WindDirectionDegrees,WindSpeedMPH,WindSpeedGustMPH,Humidity,HourlyPrecipIn,Conditions,Clouds,dailyrainin,SolarRadiationWatts/m^2,SoftwareType,DateUTC
2013-01-16 00:02:00,19.0,11.0,-100.00,SSW,210,7.0,12.0,69,0.00,,,0.00,0.000000,,2013-01-16 06:02:00,
2013-01-16 00:12:00,19.0,11.0,-100.00,SSW,210,7.0,14.0,69,0.00,,,0.00,0.000000,,2013-01-16 06:12:00,
2013-01-16 00:33:00,19.0,11.0,-100.00,SSW,210,7.0,14.0,69,0.00,,,0.00,0.000000,,2013-01-16 06:33:00,
2013-01-16 00:43:00,19.0,11.0,-100.00,SSW,210,7.0,14.0,69,0.00,,,0.00,0.000000,,2013-01-16 06:43:00,
2013-01-16 00:53:00,19.0,11.0,-100.00,SSW,210,7.0,14.0,69,0.00,,,0.00,0.000000,,2013-01-16 06:53:00,
2013-01-16 01:02:00,19.0,11.0,-100.00,SSW,210,7.0,14.0,69,0.00,,,0.00,0.000000,,2013-01-16 07:02:00,
2013-01-16 01:12:00,18.0,10.0,-100.00,SW,221,6.0,14.0,71,0.00,,,0.00,0.000000,,2013-01-16 07:12:00,
2013-01-16 01:33:00,18.0,10.0,-100.00,SW,221,6.0,14.0,71,0.00,,,0.00,0.000000,,2013-01-16 07:33:00,
2013-01-16 01:42:00,18.0,10.0,-100.00,SW,221,6.0,14.0,71,0.00,,,0.00,0.000000,,2013-01-16 07:42:00,
2013-01-16 01:52:00,18.0,10.0,-100.00,SW,221,6.0,14.0,71,0.00,,,0.00,0.000000,,2013-01-16 07:52:00,
2013-01-16 02:02:00,18.0,10.0,-100.00,SW,221,6.0,14.0,71,0.00,,,0.00,0.000000,,2013-01-16 08:02:00,
2013-01-16 02:12:00,17.0,10.0,-100.00,SW,215,6.0,11.0,74,0.00,,,0.00,0.000000,,2013-01-16 08:12:00,
2013-01-16 02:32:00,17.0,10.0,-100.00,SW,215,6.0,11.0,74,0.00,,,0.00,0.000000,,2013-01-16 08:32:00,
2013-01-16 02:42:00,17.0,10.0,-100.00,SW,215,6.0,11.0,74,0.00,,,0.00,0.000000,,2013-01-16 08:42:00,
2013-01-16 02:53:00,17.0,10.0,-100.00,SW,215,6.0,11.0,74,0.00,,,0.00,0.000000,,2013-01-16 08:53:00,
2013-01-16 03:02:00,17.0,10.0,-100.00,SW,215,6.0,11.0,74,0.00,,,0.00,0.000000,,2013-01-16 09:02:00,
2013-01-16 03:12:00,18.0,11.0,-100.00,SW,226,9.0,15.0,72,0.00,,,0.00,0.000000,,2013-01-16 09:12:00,
2013-01-16 03:33:00,18.0,11.0,-100.00,SW,226,9.0,15.0,72,0.00,,,0.00,0.000000,,2013-01-16 09:33:00,
2013-01-16 03:43:00,18.0,11.0,-100.00,SW,226,9.0,15.0,72,0.00,,,0.00,0.000000,,2013-01-16 09:43:00,
2013-01-16 03:53:00,18.0,11.0,-100.00,SW,226,9.0,15.0,72,0.00,,,0.00,0.000000,,2013-01-16 09:53:00,
2013-01-16 04:02:00,18.0,11.0,-100.00,SW,226,9.0,15.0,72,0.00,,,0.00,0.000000,,2013-01-16 10:02:00,
2013-01-16 04:12:00,20.0,11.0,-100.00,SW,226,11.0,19.0,67,0.00,,,0.00,0.000000,,2013-01-16 10:12:00,
2013-01-16 04:33:00,20.0,11.0,-100.00,SW,226,11.0,19.0,67,0.00,,,0.00,0.000000,,2013-01-16 10:33:00,
2013-01-16 04:43:00,20.0,11.0,-100.00,SW,226,11.0,19.0,67,0.00,,,0.00,0.000000,,2013-01-16 10:43:00,
2013-01-16 04:53:00,20.0,11.0,-100.00,SW,226,11.0,19.0,67,0.00,,,0.00,0.000000,,2013-01-16 10:53:00,
2013-01-16 05:02:00,20.0,11.0,-100.00,SW,226,11.0,19.0,67,0.00,,,0.00,0.000000,,2013-01-16 11:02:00,
2013-01-16 05:12:00,21.0,10.0,-100.00,SW,220,10.0,24.0,63,0.00,,,0.00,0.000000,,2013-01-16 11:12:00,
2013-01-16 05:33:00,21.0,10.0,-100.00,SW,220,10.0,24.0,63,0.00,,,0.00,0.000000,,2013-01-16 11:33:00,
2013-01-16 05:43:00,21.0,10.0,-100.00,SW,220,10.0,24.0,63,0.00,,,0.00,0.000000,,2013-01-16 11:43:00,
2013-01-16 05:53:00,21.0,10.0,-100.00,SW,220,10.0,24.0,63,0.00,,,0.00,0.000000,,2013-01-16 11:53:00,
2013-01-16 06:03:00,21.0,10.0,-100.00,SW,220,10.0,24.0,63,0.00,,,0.00,0.000000,,2013-01-16 12:03:00,
2013-01-16 06:12:00,22.0,11.0,-100.00,SW,219,10.0,20.0,61,0.00,,,0.00,0.000000,,2013-01-16 12:12:00,
2013-01-16 06:33:00,22.0,11.0,-100.00,SW,219,10.0,20.0,61,0.00,,,0.00,0.000000,,2013-01-16 12:33:00,
2013-01-16 06:43:00,22.0,11.0,-100.00,SW,219,10.0,20.0,61,0.00,,,0.00,0.000000,,2013-01-16 12:43:00,
2013-01-16 06:53:00,22.0,11.0,-100.00,SW,219,10.0,20.0,61,0.00,,,0.00,0.000000,,2013-01-16 12:53:00,
2013-01-16 07:03:00,22.0,11.0,-100.00,SW,219,10.0,20.0,61,0.00,,,0.00,0.000000,,2013-01-16 13:03:00,
2013-01-16 07:12:00,23.0,11.0,-100.00,SW,221,12.0,20.0,60,0.00,,,0.00,0.000000,,2013-01-16 13:12:00,
2013-01-16 07:33:00,23.0,11.0,-100.00,SW,221,12.0,20.0,60,0.00,,,0.00,0.000000,,2013-01-16 13:33:00,
2013-01-16 07:43:00,23.0,11.0,-100.00,SW,221,12.0,20.0,60,0.00,,,0.00,0.000000,,2013-01-16 13:43:00,
2013-01-16 07:53:00,23.0,11.0,-100.00,SW,221,12.0,20.0,60,0.00,,,0.00,0.000000,,2013-01-16 13:53:00,
2013-01-16 08:03:00,23.0,11.0,-100.00,SW,221,12.0,20.0,60,0.00,,,0.00,0.000000,,2013-01-16 14:03:00,
2013-01-16 08:12:00,22.0,15.0,-100.00,SW,235,11.0,27.0,73,0.00,,,0.00,7.000000,,2013-01-16 14:12:00,
2013-01-16 08:33:00,22.0,15.0,-100.00,SW,235,11.0,27.0,73,0.00,,,0.00,7.000000,,2013-01-16 14:33:00,
2013-01-16 08:43:00,22.0,15.0,-100.00,SW,235,11.0,27.0,73,0.00,,,0.00,7.000000,,2013-01-16 14:43:00,
2013-01-16 08:53:00,22.0,15.0,-100.00,SW,235,11.0,27.0,73,0.00,,,0.00,7.000000,,2013-01-16 14:53:00,
2013-01-16 09:03:00,22.0,15.0,-100.00,SW,235,11.0,27.0,73,0.00,,,0.00,7.000000,,2013-01-16 15:03:00,
2013-01-16 09:12:00,22.0,16.0,-100.00,SW,236,11.0,20.0,78,0.00,,,0.00,48.000000,,2013-01-16 15:12:00,
2013-01-16 09:43:00,22.0,16.0,-100.00,SW,236,11.0,20.0,78,0.00,,,0.00,48.000000,,2013-01-16 15:43:00,
2013-01-16 09:53:00,22.0,16.0,-100.00,SW,236,11.0,20.0,78,0.00,,,0.00,48.000000,,2013-01-16 15:53:00,
2013-01-16 10:03:00,22.0,16.0,-100.00,SW,236,11.0,20.0,78,0.00,,,0.00,48.000000,,2013-01-16 16:03:00,
2013-01-16 10:12:00,23.0,17.0,-100.00,WSW,248,7.0,18.0,76,0.00,,,0.00,84.000000,,2013-01-16 16:12:00,
2013-01-16 10:33:00,23.0,17.0,-100.00,WSW,248,7.0,18.0,76,0.00,,,0.00,84.000000,,2013-01-16 16:33:00,
2013-01-16 10:43:00,23.0,17.0,-100.00,WSW,248,7.0,18.0,76,0.00,,,0.00,84.000000,,2013-01-16 16:43:00,
2013-01-16 10:53:00,23.0,17.0,-100.00,WSW,248,7.0,18.0,76,0.00,,,0.00,84.000000,,2013-01-16 16:53:00,
2013-01-16 11:03:00,23.0,17.0,-100.00,WSW,248,7.0,18.0,76,0.00,,,0.00,84.000000,,2013-01-16 17:03:00,
2013-01-16 11:12:00,24.0,17.0,-100.00,WSW,243,8.0,16.0,74,0.00,,,0.00,67.000000,,2013-01-16 17:12:00,
2013-01-16 11:33:00,24.0,17.0,-100.00,WSW,243,8.0,16.0,74,0.00,,,0.00,67.000000,,2013-01-16 17:33:00,
2013-01-16 11:44:00,24.0,17.0,-100.00,WSW,243,8.0,16.0,74,0.00,,,0.00,67.000000,,2013-01-16 17:44:00,
2013-01-16 11:53:00,24.0,17.0,-100.00,WSW,243,8.0,16.0,74,0.00,,,0.00,67.000000,,2013-01-16 17:53:00,
2013-01-16 12:03:00,24.0,17.0,-100.00,WSW,243,8.0,16.0,74,0.00,,,0.00,67.000000,,2013-01-16 18:03:00,
2013-01-16 12:12:00,27.0,20.0,-100.00,West,273,7.0,13.0,73,0.00,,,0.00,72.000000,,2013-01-16 18:12:00,
2013-01-16 12:33:00,27.0,20.0,-100.00,West,273,7.0,13.0,73,0.00,,,0.00,72.000000,,2013-01-16 18:33:00,
2013-01-16 12:43:00,27.0,20.0,-100.00,West,273,7.0,13.0,73,0.00,,,0.00,72.000000,,2013-01-16 18:43:00,
2013-01-16 12:53:00,27.0,20.0,-100.00,West,273,7.0,13.0,73,0.00,,,0.00,72.000000,,2013-01-16 18:53:00,
2013-01-16 13:03:00,27.0,20.0,-100.00,West,273,7.0,13.0,73,0.00,,,0.00,72.000000,,2013-01-16 19:03:00,
2013-01-16 13:12:00,27.0,20.0,-100.00,West,281,6.0,16.0,74,0.00,,,0.00,41.000000,,2013-01-16 19:12:00,
2013-01-16 13:33:00,27.0,20.0,-100.00,West,281,6.0,16.0,74,0.00,,,0.00,41.000000,,2013-01-16 19:33:00,
2013-01-16 13:43:00,27.0,20.0,-100.00,West,281,6.0,16.0,74,0.00,,,0.00,41.000000,,2013-01-16 19:43:00,
2013-01-16 13:53:00,27.0,20.0,-100.00,West,281,6.0,16.0,74,0.00,,,0.00,41.000000,,2013-01-16 19:53:00,
2013-01-16 14:03:00,27.0,20.0,-100.00,West,281,6.0,16.0,74,0.00,,,0.00,41.000000,,2013-01-16 20:03:00,
2013-01-16 14:12:00,28.0,21.0,-100.00,WNW,289,6.0,16.0,75,0.00,,,0.00,33.000000,,2013-01-16 20:12:00,
2013-01-16 14:43:00,28.0,21.0,-100.00,WNW,289,6.0,16.0,75,0.00,,,0.00,33.000000,,2013-01-16 20:43:00,
2013-01-16 14:53:00,28.0,21.0,-100.00,WNW,289,6.0,16.0,75,0.00,,,0.00,33.000000,,2013-01-16 20:53:00,
2013-01-16 15:03:00,28.0,21.0,-100.00,WNW,289,6.0,16.0,75,0.00,,,0.00,33.000000,,2013-01-16 21:03:00,
2013-01-16 15:12:00,29.0,22.0,-100.00,WNW,289,6.0,15.0,75,0.00,,,0.00,16.000000,,2013-01-16 21:12:00,
2013-01-16 15:43:00,29.0,22.0,-100.00,WNW,289,6.0,15.0,75,0.00,,,0.00,16.000000,,2013-01-16 21:43:00,
2013-01-16 15:53:00,29.0,22.0,-100.00,WNW,289,6.0,15.0,75,0.00,,,0.00,16.000000,,2013-01-16 21:53:00,
2013-01-16 16:03:00,29.0,22.0,-100.00,WNW,289,6.0,15.0,75,0.00,,,0.00,16.000000,,2013-01-16 22:03:00,
2013-01-16 16:12:00,29.0,19.0,-100.00,NW,321,5.0,14.0,66,0.00,,,0.00,10.000000,,2013-01-16 22:12:00,
2013-01-16 16:43:00,29.0,19.0,-100.00,NW,321,5.0,14.0,66,0.00,,,0.00,10.000000,,2013-01-16 22:43:00,
2013-01-16 16:53:00,29.0,19.0,-100.00,NW,321,5.0,14.0,66,0.00,,,0.00,10.000000,,2013-01-16 22:53:00,
2013-01-16 17:03:00,29.0,19.0,-100.00,NW,321,5.0,14.0,66,0.00,,,0.00,10.000000,,2013-01-16 23:03:00,
2013-01-16 17:12:00,28.0,14.0,-100.00,NNW,329,9.0,19.0,55,0.00,,,0.00,1.000000,,2013-01-16 23:12:00,
2013-01-16 17:33:00,28.0,14.0,-100.00,NNW,329,9.0,19.0,55,0.00,,,0.00,1.000000,,2013-01-16 23:33:00,
2013-01-16 17:43:00,28.0,14.0,-100.00,NNW,329,9.0,19.0,55,0.00,,,0.00,1.000000,,2013-01-16 23:43:00,
2013-01-16 17:53:00,28.0,14.0,-100.00,NNW,329,9.0,19.0,55,0.00,,,0.00,1.000000,,2013-01-16 23:53:00,
2013-01-16 18:02:00,28.0,14.0,-100.00,NNW,329,9.0,19.0,55,0.00,,,0.00,1.000000,,2013-01-17 00:02:00,
2013-01-16 18:12:00,25.0,6.0,-100.00,NNW,331,10.0,19.0,43,0.00,,,0.00,0.000000,,2013-01-17 00:12:00,
2013-01-16 18:33:00,25.0,6.0,-100.00,NNW,331,10.0,19.0,43,0.00,,,0.00,0.000000,,2013-01-17 00:33:00,
2013-01-16 18:42:00,25.0,6.0,-100.00,NNW,331,10.0,19.0,43,0.00,,,0.00,0.000000,,2013-01-17 00:42:00,
2013-01-16 18:52:00,25.0,6.0,-100.00,NNW,331,10.0,19.0,43,0.00,,,0.00,0.000000,,2013-01-17 00:52:00,
2013-01-16 19:02:00,25.0,6.0,-100.00,NNW,331,10.0,19.0,43,0.00,,,0.00,0.000000,,2013-01-17 01:02:00,
2013-01-16 19:12:00,23.0,7.0,-100.00,NNW,345,7.0,17.0,50,0.00,,,0.00,0.000000,,2013-01-17 01:12:00,
2013-01-16 19:33:00,23.0,7.0,-100.00,NNW,345,7.0,17.0,50,0.00,,,0.00,0.000000,,2013-01-17 01:33:00,
2013-01-16 19:43:00,23.0,7.0,-100.00,NNW,345,7.0,17.0,50,0.00,,,0.00,0.000000,,2013-01-17 01:43:00,
2013-01-16 19:52:00,23.0,7.0,-100.00,NNW,345,7.0,17.0,50,0.00,,,0.00,0.000000,,2013-01-17 01:52:00,
2013-01-16 20:02:00,23.0,7.0,-100.00,NNW,345,7.0,17.0,50,0.00,,,0.00,0.000000,,2013-01-17 02:02:00,
2013-01-16 20:12:00,22.0,6.0,-100.00,NW,319,8.0,22.0,49,0.00,,,0.00,0.000000,,2013-01-17 02:12:00,
2013-01-16 20:32:00,22.0,6.0,-100.00,NW,319,8.0,22.0,49,0.00,,,0.00,0.000000,,2013-01-17 02:32:00,
2013-01-16 20:43:00,22.0,6.0,-100.00,NW,319,8.0,22.0,49,0.00,,,0.00,0.000000,,2013-01-17 02:43:00,
2013-01-16 20:52:00,22.0,6.0,-100.00,NW,319,8.0,22.0,49,0.00,,,0.00,0.000000,,2013-01-17 02:52:00,
2013-01-16 21:03:00,22.0,6.0,-100.00,NW,319,8.0,22.0,49,0.00,,,0.00,0.000000,,2013-01-17 03:03:00,
2013-01-16 21:12:00,20.0,9.0,-100.00,North,353,6.0,17.0,62,0.00,,,0.00,0.000000,,2013-01-17 03:12:00,
2013-01-16 21:33:00,20.0,9.0,-100.00,North,353,6.0,17.0,62,0.00,,,0.00,0.000000,,2013-01-17 03:33:00,
2013-01-16 21:43:00,20.0,9.0,-100.00,North,353,6.0,17.0,62,0.00,,,0.00,0.000000,,2013-01-17 03:43:00,
2013-01-16 21:53:00,20.0,9.0,-100.00,North,353,6.0,17.0,62,0.00,,,0.00,0.000000,,2013-01-17 03:53:00,
2013-01-16 22:02:00,20.0,9.0,-100.00,North,353,6.0,17.0,62,0.00,,,0.00,0.000000,,2013-01-17 04:02:00,
2013-01-16 22:12:00,19.0,6.0,-100.00,NNW,347,9.0,19.0,55,0.00,,,0.00,0.000000,,2013-01-17 04:12:00,
2013-01-16 22:33:00,19.0,6.0,-100.00,NNW,347,9.0,19.0,55,0.00,,,0.00,0.000000,,2013-01-17 04:33:00,
2013-01-16 22:43:00,19.0,6.0,-100.00,NNW,347,9.0,19.0,55,0.00,,,0.00,0.000000,,2013-01-17 04:43:00,
2013-01-16 22:52:00,19.0,6.0,-100.00,NNW,347,9.0,19.0,55,0.00,,,0.00,0.000000,,2013-01-17 04:52:00,
2013-01-16 23:04:00,19.0,6.0,-100.00,NNW,347,9.0,19.0,55,0.00,,,0.00,0.000000,,2013-01-17 05:04:00,
2013-01-16 23:12:00,15.0,6.0,-100.00,North,355,7.0,18.0,66,0.00,,,0.00,0.000000,,2013-01-17 05:12:00,
2013-01-16 23:33:00,15.0,6.0,-100.00,North,355,7.0,18.0,66,0.00,,,0.00,0.000000,,2013-01-17 05:33:00,
2013-01-16 23:43:00,15.0,6.0,-100.00,North,355,7.0,18.0,66,0.00,,,0.00,0.000000,,2013-01-17 05:43:00,
2013-01-16 23:53:00,15.0,6.0,-100.00,North,355,7.0,18.0,66,0.00,,,0.00,0.000000,,2013-01-17 05:53:00,